Theta_e
313 316 317 318 318 316 315 316 317 315 315 316 317 317 316 317 317 315 314 311 310 313 316 316 316 317 317 315 313 309 308 308 308 307 306 305 304 304 304 304 304 305 305 305 305 306 307 308 309 310 311 312 314 316 315 315 316 316 317 317 317 318 318 318 318 319 319 319 319 319 319 319 319 319 318 317 316 315 315 316 316 316 316 317 317 316
313 317 319 318 317 315 315 315 314 313 314 314 315 317 316 317 317 315 313 310 310 313 315 314 314 315 316 316 314 309 309 309 308 308 307 305 303 303 303 303 304 304 304 305 305 306 307 308 309 309 310 312 313 315 316 315 315 316 317 317 317 317 318 317 317 317 317 317 318 317 316 316 316 315 314 312 310 309 310 310 310 311 310 310 310 309
314 317 318 315 313 312 312 312 312 313 314 314 315 316 316 317 316 314 311 309 309 312 315 313 313 315 315 316 314 309 309 309 307 307 306 304 303 302 303 303 304 304 304 304 305 305 307 307 308 309 310 312 313 315 316 315 315 316 316 316 317 317 317 316 314 314 313 313 314 312 312 311 310 309 308 307 306 305 306 306 306 306 306 306 306 306
317 317 315 313 312 312 311 310 311 312 313 314 314 315 316 316 316 316 313 309 309 310 312 312 312 314 315 315 313 308 306 306 303 303 303 303 303 302 303 303 303 303 303 304 304 305 306 307 307 309 311 312 313 315 316 316 316 316 316 316 316 315 314 313 311 310 309 309 309 308 307 307 306 306 305 305 305 305 305 305 305 304 304 304 304 305
318 314 310 311 312 313 312 310 311 313 314 314 314 315 316 316 315 316 314 310 310 309 309 311 314 317 317 317 314 307 303 303 302 302 302 301 302 302 302 303 303 303 303 304 304 305 306 307 307 309 311 312 313 314 315 315 315 315 314 313 311 310 308 308 307 307 306 306 306 305 305 305 304 304 304 304 304 304 304 304 304 303 303 303 303 303
317 311 309 310 311 313 313 312 312 314 315 315 314 314 314 315 314 314 313 312 314 315 311 312 319 321 317 316 315 308 304 304 303 302 303 301 300 301 301 302 303 303 304 304 305 306 306 307 307 309 311 312 312 313 312 312 311 310 308 307 306 305 305 305 305 305 305 304 304 304 304 304 304 304 303 303 303 303 303 303 303 303 302 302 302 303
314 310 310 312 311 313 313 313 313 314 315 316 315 313 312 313 314 313 313 314 317 319 311 309 318 322 317 317 315 309 307 306 303 303 303 301 300 300 300 301 302 303 304 305 306 306 306 306 307 308 309 310 310 309 308 307 306 305 305 304 304 304 304 304 304 303 304 303 303 303 303 303 303 303 303 303 302 302 302 302 302 302 302 301 302 302
312 310 311 313 313 313 313 313 313 312 314 318 315 313 312 312 313 313 314 315 317 317 311 309 314 318 318 318 314 309 309 309 305 304 304 302 301 300 300 301 302 303 304 305 305 305 305 306 306 306 306 306 306 305 305 304 304 304 303 303 303 303 303 303 303 302 302 302 302 302 303 303 303 302 302 302 302 301 301 301 301 301 301 300 300 300
312 313 313 313 313 313 314 316 314 312 315 316 311 310 311 311 313 313 314 315 314 314 316 314 313 316 319 317 312 308 310 312 310 306 304 303 302 300 300 301 302 304 304 304 304 305 305 305 305 305 304 304 304 304 303 303 303 303 303 303 303 303 303 302 302 302 301 302 302 302 302 302 301 301 301 301 300 300 300 300 300 299 299 299 298 298
312 311 311 313 314 314 315 314 311 313 315 312 308 309 310 310 311 312 314 315 313 314 318 317 314 317 320 318 314 312 312 315 313 308 305 305 302 301 301 301 302 303 303 304 304 304 304 304 304 304 303 303 303 303 302 302 302 302 302 302 302 302 302 302 301 301 301 301 301 301 301 301 300 300 300 300 299 299 299 299 298 298 297 297 297 296
308 307 309 312 313 312 311 307 306 311 311 309 310 312 312 311 310 311 312 312 314 316 318 317 315 317 320 319 318 316 313 313 312 308 306 305 302 301 301 300 301 302 302 303 303 303 303 303 303 303 302 302 302 302 302 302 302 302 302 302 302 302 301 301 301 301 300 300 300 300 300 300 299 299 299 299 298 298 298 297 297 296 296 295 295 294
309 309 310 311 310 309 310 308 305 306 306 309 313 314 315 314 312 312 312 312 317 320 315 311 312 315 319 319 317 316 311 310 311 309 307 305 303 301 301 300 301 301 302 302 302 302 302 302 302 302 302 302 302 301 301 301 301 301 301 301 301 301 301 301 300 300 300 300 299 299 299 299 298 298 298 297 297 297 296 296 296 295 295 294 293 293
313 313 312 310 308 308 312 312 308 306 306 310 313 314 319 319 316 317 317 315 318 318 310 307 310 314 316 317 316 315 311 308 308 307 307 306 304 302 301 301 301 301 302 302 302 302 302 302 302 302 302 301 301 301 301 301 301 301 301 301 301 301 300 300 300 300 299 299 299 298 298 298 297 297 297 297 297 296 296 295 294 294 293 293 292 292
317 316 311 311 310 309 313 315 314 311 309 311 314 316 321 321 319 321 319 316 318 315 308 307 310 314 315 315 314 312 308 306 304 303 304 305 303 302 301 301 301 301 301 301 301 302 302 302 302 301 301 301 301 301 300 301 300 300 300 300 301 301 300 300 299 299 299 299 298 298 297 297 297 296 296 296 296 295 295 294 293 293 292 292 292 292
321 320 314 313 313 311 312 315 316 314 310 312 314 316 319 320 321 323 321 319 318 313 308 308 312 316 317 313 309 306 303 302 302 301 301 302 302 302 301 301 301 301 301 301 301 302 302 302 301 301 301 301 301 301 300 300 300 300 300 300 301 301 300 299 299 298 298 298 298 297 297 297 296 296 296 296 295 295 294 293 293 293 292 292 292 292
319 321 314 310 310 310 312 313 313 314 313 311 311 314 317 318 317 316 314 313 312 312 311 310 313 315 314 309 303 302 302 301 301 301 300 301 301 301 301 301 301 301 300 301 301 301 301 301 301 301 301 300 300 300 300 300 300 300 300 300 300 300 299 299 298 298 298 297 297 297 296 296 296 296 295 295 295 294 294 293 292 292 292 292 291 291
318 318 311 308 308 307 309 310 310 313 315 311 310 313 314 314 314 313 311 308 308 315 317 312 313 313 312 310 304 302 304 303 302 302 301 301 300 300 300 300 301 301 300 301 301 301 301 301 301 300 300 300 300 300 300 300 299 299 299 299 299 299 299 298 298 297 297 297 297 296 296 296 295 295 295 294 294 293 293 292 292 291 291 291 291 291
318 317 311 309 311 307 305 308 308 309 311 311 312 314 312 311 313 314 316 313 312 318 318 313 315 315 315 315 309 305 306 306 304 303 302 301 300 300 300 301 301 301 301 301 301 301 301 301 300 300 300 300 300 300 299 299 299 299 299 299 298 299 298 298 297 297 296 296 296 296 296 295 295 294 294 293 293 292 292 291 291 291 291 291 290 290
316 318 313 307 310 307 304 308 311 308 308 309 312 313 313 315 316 314 317 318 317 319 317 313 314 314 316 316 312 310 310 308 306 303 301 301 301 300 301 301 302 301 301 301 301 301 301 301 300 300 300 300 299 299 299 299 298 298 298 298 298 298 297 297 297 296 296 296 295 295 295 295 294 293 292 292 292 291 291 291 290 290 290 290 290 290
314 318 317 308 307 308 307 310 313 311 308 307 309 311 311 314 316 315 315 316 318 319 318 315 314 314 315 316 314 313 312 311 309 305 302 302 301 301 301 301 301 301 301 301 301 301 301 301 300 300 300 300 299 299 299 298 298 297 297 297 296 296 296 296 296 296 295 295 295 294 294 293 292 292 291 291 291 290 290 290 290 290 290 290 290 290
312 316 318 310 306 309 311 311 314 314 310 309 311 312 311 311 312 313 313 313 315 317 317 317 318 316 314 313 314 314 314 312 311 308 305 303 302 302 301 301 302 302 301 301 301 301 301 301 300 300 299 299 299 298 298 298 297 297 296 296 296 295 296 296 295 295 295 294 294 293 292 291 291 291 291 290 290 290 289 289 289 290 290 289 289 289
313 314 316 312 309 311 312 311 311 312 312 312 313 313 313 313 313 315 316 313 312 314 316 316 318 318 312 308 310 311 311 311 309 308 307 304 303 303 301 301 302 302 302 302 302 301 301 300 300 299 299 299 298 298 298 297 297 296 296 295 295 295 295 295 295 294 293 293 292 291 291 290 290 290 290 290 289 289 289 289 290 290 289 289 289 289
313 314 314 313 312 312 311 307 306 308 310 311 312 313 314 314 314 317 319 315 311 313 313 313 316 318 310 303 304 305 305 305 305 306 307 305 303 302 301 302 302 302 302 302 302 301 301 300 300 299 299 298 298 298 298 297 296 295 295 295 295 295 294 294 293 293 292 292 291 290 290 289 289 289 289 289 289 289 289 290 289 289 289 289 289 289
312 314 315 314 313 312 310 308 306 305 308 310 311 311 313 314 315 316 316 314 314 315 314 314 317 317 309 304 303 303 302 302 301 303 305 305 303 302 302 302 302 301 302 301 301 301 300 300 299 299 299 299 299 298 297 296 295 294 295 295 294 294 294 293 292 291 291 291 290 290 289 289 289 289 289 289 289 289 290 290 289 289 289 289 289 288
314 316 316 316 316 315 313 312 311 308 308 310 312 311 311 313 314 314 313 312 314 316 316 316 318 316 310 306 304 302 301 302 301 301 303 303 303 302 302 303 302 301 300 301 301 300 300 299 299 299 299 299 299 298 297 295 295 294 295 294 294 293 292 292 291 291 290 290 289 289 289 289 289 288 289 289 289 290 289 290 289 289 289 289 288 288
316 317 316 316 318 319 318 318 316 313 310 310 312 312 311 312 313 313 313 314 316 317 316 317 318 315 310 307 306 304 303 304 303 301 301 302 303 303 303 303 302 301 300 300 300 300 300 299 299 300 300 300 299 297 296 295 295 295 294 294 293 293 292 291 291 290 290 289 289 289 288 288 288 288 289 289 290 290 290 289 289 289 289 288 288 288
315 317 316 317 319 320 320 318 317 315 312 312 312 312 311 312 312 313 314 315 315 315 315 316 317 315 311 309 309 307 305 306 306 303 300 301 303 304 304 304 303 302 302 301 300 300 300 300 300 300 300 299 298 296 295 295 295 295 294 294 293 292 291 291 291 290 289 289 288 288 288 288 288 288 289 290 290 290 290 289 289 289 289 288 288 288
314 315 316 317 318 319 318 316 315 315 315 314 313 312 311 311 312 313 314 315 315 315 316 317 316 316 314 311 311 309 306 306 306 304 303 303 304 304 303 303 303 303 302 301 300 300 300 301 301 300 300 299 297 295 295 295 295 295 294 294 293 292 291 291 290 290 289 289 288 288 288 288 288 289 289 290 290 290 289 289 289 289 288 288 288 288
314 315 316 317 316 317 317 315 314 316 317 316 314 314 312 311 311 312 313 314 315 315 317 317 316 316 314 312 311 309 306 306 307 307 307 307 305 304 303 302 302 302 301 301 301 301 301 301 301 300 299 298 296 295 295 295 295 294 294 294 293 292 292 291 290 289 289 288 288 288 288 288 288 289 290 290 290 290 289 289 289 289 288 288 288 288
314 316 317 316 316 316 316 314 313 314 317 316 315 314 313 311 311 312 312 313 314 315 315 315 314 315 314 312 312 310 308 308 308 308 307 305 304 303 302 302 303 303 303 302 302 302 302 301 300 299 299 297 297 296 296 296 295 295 294 294 293 293 292 292 290 289 289 288 288 288 288 288 288 289 290 290 290 289 289 289 289 289 288 288 288 288
313 316 315 315 315 316 315 314 314 315 316 317 315 314 313 311 310 311 311 312 313 313 313 312 312 313 313 312 312 310 308 307 306 305 304 303 303 303 302 303 304 304 304 304 303 303 302 300 299 299 298 298 298 298 297 297 296 296 295 294 294 293 294 293 291 289 288 288 288 288 287 288 289 290 290 290 289 289 289 289 289 289 288 288 288 287
312 313 313 313 316 317 314 313 314 314 314 315 315 314 312 309 310 310 310 311 312 312 312 312 312 313 313 311 308 306 304 304 305 304 303 303 303 302 303 304 304 304 304 304 304 303 302 301 300 300 299 299 299 299 299 298 297 296 296 295 294 294 294 293 291 289 288 288 287 287 287 288 289 290 289 289 289 289 289 289 289 288 288 288 288 287
311 312 312 313 318 316 310 310 312 312 314 316 315 315 313 311 311 311 310 311 311 311 313 314 313 313 311 309 306 304 303 304 305 304 304 303 302 303 303 304 304 304 304 304 303 302 301 301 300 300 300 300 299 299 299 299 298 297 297 296 295 294 293 293 291 290 289 288 287 287 287 288 289 289 289 289 289 289 289 289 289 288 288 288 287 287
310 312 312 314 317 313 306 307 311 314 318 315 308 309 313 313 313 313 312 312 312 312 312 312 312 312 310 308 308 307 304 304 305 305 305 305 304 304 303 303 304 304 304 303 302 301 300 300 299 299 299 299 299 300 299 299 298 298 297 296 295 293 293 293 292 291 290 289 288 287 287 288 288 289 289 288 289 289 289 289 289 288 288 287 287 287
310 311 311 312 313 308 304 307 314 317 316 308 300 300 305 310 313 314 313 312 312 310 310 309 309 310 308 307 307 307 305 304 304 304 304 305 305 304 304 303 303 303 303 302 301 300 299 299 298 298 299 299 300 300 300 299 298 297 296 295 294 293 293 293 293 293 292 291 289 287 287 287 288 288 288 288 289 289 289 289 288 288 288 287 287 287
310 311 311 310 308 305 306 310 315 316 311 304 298 297 300 305 309 310 311 311 310 308 308 309 309 307 303 303 303 304 304 303 302 303 304 304 304 303 303 303 302 301 300 299 298 298 298 297 298 298 299 299 299 298 298 298 298 297 296 295 294 293 293 293 293 293 293 291 289 288 287 288 288 288 288 289 289 289 289 288 288 288 287 287 287 287
309 311 310 310 308 307 308 310 312 313 311 307 303 300 302 306 307 309 311 311 308 307 307 308 308 305 300 299 299 300 301 301 300 301 303 304 303 302 301 300 299 298 297 297 297 297 297 298 298 299 298 298 298 297 297 297 297 297 296 295 294 293 293 293 293 293 293 292 290 288 287 288 288 289 289 289 289 289 289 288 288 288 287 287 287 287
306 309 310 312 310 308 309 310 310 312 313 312 308 303 300 303 304 306 309 309 306 304 305 307 308 305 300 297 296 297 298 300 300 301 302 302 301 300 299 298 297 297 297 297 296 297 297 298 298 298 297 297 297 297 297 297 297 296 296 295 294 294 294 294 293 293 292 291 289 288 288 289 289 289 289 289 289 289 288 288 288 287 287 287 287 287
304 305 307 310 311 309 309 312 312 312 312 311 306 300 296 299 302 304 307 308 304 300 301 305 306 304 301 297 295 296 299 301 301 300 300 299 298 298 297 297 296 296 296 296 297 297 298 298 298 297 297 296 296 296 296 296 296 295 295 295 294 294 294 293 293 292 292 291 290 289 289 290 289 289 289 288 289 288 288 288 288 287 287 287 287 287
304 305 306 309 311 310 310 311 311 311 310 306 301 296 295 298 301 304 308 308 301 297 298 303 304 303 301 297 296 297 300 302 301 299 298 297 297 296 296 296 296 296 296 296 297 297 298 298 297 297 296 296 295 295 294 294 294 293 293 293 293 293 293 292 292 292 292 291 290 290 290 289 289 288 288 288 288 288 288 288 287 287 287 287 287 287
303 304 305 307 310 310 311 312 311 311 309 303 298 295 295 297 301 306 308 304 298 296 298 301 302 301 299 297 296 298 300 300 299 298 296 296 295 295 295 295 295 296 296 296 296 296 297 296 296 295 295 294 294 293 293 292 292 292 292 291 291 291 291 291 291 291 291 291 290 289 289 288 288 288 288 288 288 288 288 288 287 287 287 287 287 286
304 304 304 306 308 309 310 310 311 311 307 300 296 294 295 300 304 305 302 298 297 298 298 299 299 299 298 297 297 298 299 297 296 296 295 295 294 294 294 294 295 295 295 295 296 296 295 295 295 294 293 293 292 292 292 291 291 291 291 290 290 290 290 291 291 290 290 290 289 289 288 288 288 288 288 288 288 288 288 287 287 287 287 287 286 286
305 306 305 306 307 307 308 308 311 311 303 296 295 296 297 301 304 301 297 296 297 298 298 298 298 297 297 298 298 298 297 296 295 295 294 294 294 293 294 294 294 294 294 294 294 294 293 293 293 293 292 292 292 292 291 291 291 291 290 290 290 290 290 290 290 290 289 289 288 288 288 288 288 288 288 288 288 288 287 287 287 287 287 286 286 286
306 307 306 307 307 308 308 309 308 306 299 296 298 300 299 300 301 299 297 296 296 297 298 298 297 297 297 297 297 297 296 295 295 295 294 294 294 293 293 293 293 293 293 293 292 292 292 292 292 292 292 292 291 291 291 291 291 291 291 290 290 289 289 289 289 289 289 288 288 289 289 289 288 288 288 288 288 287 287 287 287 287 286 286 286 286
305 304 304 305 306 305 305 304 301 298 297 297 298 299 299 299 298 298 298 297 296 297 297 297 297 297 296 296 296 296 295 295 294 294 294 294 294 293 293 293 293 292 292 292 292 292 292 292 292 292 291 291 291 291 291 291 291 291 291 291 290 290 289 289 289 289 289 289 289 289 289 289 288 288 288 288 288 287 287 287 287 286 286 286 285 285
297 296 299 301 302 299 298 297 296 295 296 297 297 297 297 298 298 297 297 297 297 297 297 296 296 296 296 296 295 295 295 294 294 294 293 293 293 293 293 293 293 292 292 292 292 292 292 292 292 292 291 291 291 291 291 291 291 291 291 291 290 290 290 290 289 289 289 289 289 289 289 289 288 288 288 288 287 287 287 287 286 286 286 285 285 285
293 293 296 298 300 300 298 296 294 295 295 295 296 296 297 297 297 297 297 296 296 296 296 296 296 295 295 295 295 294 294 294 293 293 293 293 293 293 293 293 293 292 292 292 292 292 292 292 292 292 292 291 291 291 291 291 291 291 291 291 291 290 290 290 290 290 289 289 289 288 288 288 289 288 288 288 287 287 287 286 286 285 285 285 284 284
296 295 296 296 297 297 296 293 291 292 294 294 295 296 297 297 297 296 296 296 296 296 295 295 295 295 295 295 294 294 294 294 293 293 293 293 293 293 293 293 293 293 292 292 292 292 292 292 292 292 292 292 291 291 291 291 291 291 291 291 291 291 290 290 290 290 289 289 289 288 288 288 288 288 288 288 287 287 287 286 286 285 285 284 284 284
295 295 295 295 295 293 292 291 291 292 293 294 295 297 298 298 297 296 296 296 296 296 295 295 295 295 294 294 294 294 294 294 293 293 293 293 293 293 293 293 293 292 292 292 292 292 292 291 291 291 291 291 291 291 291 291 291 291 291 291 291 291 291 290 290 290 289 289 289 288 288 288 288 288 288 287 287 287 286 286 285 285 284 284 284 284
295 296 294 294 295 295 294 293 292 294 295 295 295 297 297 297 296 296 296 296 296 296 295 295 295 295 294 294 294 294 294 294 293 293 293 293 293 293 292 292 292 292 292 291 291 291 291 291 291 291 291 291 291 291 291 291 291 291 291 290 290 290 290 290 290 290 290 289 289 288 288 288 288 288 288 287 287 286 286 285 285 285 284 284 283 283
295 296 295 295 297 297 295 294 294 295 296 295 295 296 296 295 296 296 295 295 295 295 295 295 295 294 294 294 294 294 294 293 293 293 293 293 293 293 292 292 292 292 291 291 291 291 291 291 291 291 291 291 291 291 291 291 291 291 290 290 290 290 290 290 290 289 289 289 289 288 288 288 288 288 288 287 286 286 285 285 285 285 284 284 283 283
Wind_Speed
5 4 6 7 5 8 11 11 6 3 4 2 1 2 4 6 6 1 3 1 1 4 8 7 10 13 12 10 9 9 8 9 9 10 10 10 10 10 9 8 7 7 7 7 7 8 8 8 8 8 7 7 9 11 11 12 13 14 14 14 14 14 13 12 10 9 9 9 9 9 8 8 9 8 5 4 4 4 4 4 3 3 3 3 3 3
4 6 10 7 2 4 9 9 4 2 3 2 3 4 5 6 7 1 3 1 1 3 6 3 8 13 14 12 6 10 9 9 11 11 9 9 10 10 10 8 7 7 7 8 8 9 10 9 9 8 8 8 10 11 12 12 14 14 14 14 14 14 11 10 9 8 7 7 7 7 8 8 9 9 8 9 11 11 11 11 10 10 10 9 8 9
4 9 10 4 7 4 3 6 7 7 5 4 3 4 5 5 5 2 2 1 2 4 5 1 6 12 13 12 5 9 8 7 10 10 8 8 9 10 10 9 9 8 8 9 10 11 11 10 9 9 9 9 11 13 13 13 15 15 15 14 14 12 9 9 10 9 9 9 9 10 12 12 14 15 15 16 17 17 17 16 16 16 15 14 14 14
5 7 5 7 9 6 4 5 8 6 5 6 5 5 6 3 2 4 1 3 2 2 3 3 6 10 12 13 6 7 5 4 7 10 9 10 10 10 12 11 10 10 9 10 11 12 12 12 11 11 12 12 13 14 14 15 15 15 15 14 13 12 11 12 14 14 15 16 16 16 17 17 18 20 20 20 19 18 17 18 17 17 17 16 15 15
6 1 3 8 9 8 5 6 8 6 6 7 7 8 8 5 6 7 0 2 3 3 2 4 8 9 10 12 6 5 4 4 5 7 8 10 12 12 12 12 12 11 11 12 13 14 14 14 14 14 15 15 16 16 16 16 16 16 16 16 16 17 18 19 19 20 20 20 20 20 19 19 20 20 19 18 18 17 16 16 16 16 15 15 14 13
7 4 7 8 7 9 7 6 9 9 6 5 8 12 12 10 8 6 0 1 5 4 3 2 7 6 3 6 5 3 4 5 5 6 8 8 10 12 12 13 13 12 13 14 15 16 16 16 17 18 18 18 18 18 18 19 19 20 21 22 22 23 23 23 23 22 21 20 19 18 18 18 18 18 17 17 16 15 15 14 14 13 12 11 11 10
3 4 6 6 7 9 8 7 8 8 6 4 4 10 13 11 7 5 4 3 5 3 1 1 6 5 3 4 4 3 4 6 5 7 8 8 9 10 12 14 14 14 16 17 18 19 19 20 21 21 22 22 22 22 23 24 24 25 25 25 25 25 25 24 23 21 20 19 18 16 16 15 14 14 15 15 14 13 13 12 10 9 9 8 7 7
4 6 4 5 7 7 7 7 7 9 7 3 1 4 9 9 8 8 7 6 4 2 1 3 4 6 7 5 2 3 4 6 7 8 8 9 9 10 12 14 16 17 20 22 23 23 24 25 25 26 26 26 27 27 28 28 27 27 26 25 25 24 24 23 22 20 18 17 16 14 12 11 11 11 12 12 12 11 10 9 8 7 6 6 5 5
3 7 8 9 7 6 6 2 7 12 7 1 3 2 4 4 5 6 6 6 2 2 4 6 5 5 8 3 3 2 5 9 9 10 11 12 12 13 16 17 17 20 23 25 27 27 28 28 29 29 29 30 30 30 29 29 28 27 26 25 24 23 23 22 20 19 17 14 12 10 9 9 10 10 11 10 10 10 8 7 6 6 5 5 5 6
2 2 6 8 7 6 3 4 3 9 4 4 6 5 6 4 3 3 3 3 1 4 8 9 10 6 7 4 4 2 5 8 6 8 11 15 16 16 17 19 19 22 25 27 29 30 30 30 30 30 30 30 30 30 29 28 27 26 25 24 23 22 22 21 19 17 15 12 10 9 8 8 9 10 10 9 9 8 7 5 5 5 5 5 5 6
3 1 1 4 5 2 6 6 4 0 4 9 7 6 6 4 3 2 1 1 3 6 7 9 13 10 6 3 7 4 1 2 4 6 10 13 15 17 19 20 22 24 26 28 30 31 31 31 30 30 29 29 29 29 28 27 26 25 24 23 22 21 21 20 18 16 14 12 10 9 8 8 9 10 9 8 7 7 6 5 5 5 5 5 6 6
1 2 1 3 4 6 8 5 6 4 3 6 4 4 4 2 2 2 2 3 6 6 1 2 7 11 9 4 4 2 2 2 3 5 10 15 17 18 21 23 25 27 29 31 31 32 32 31 30 29 29 28 28 27 27 26 25 24 23 21 21 21 20 19 17 15 13 11 10 8 8 8 9 9 8 6 6 6 5 4 4 4 5 5 6 6
3 5 2 2 5 7 6 4 4 2 2 3 4 6 5 3 3 4 3 4 7 4 2 2 3 6 9 7 7 4 3 3 1 1 6 14 18 19 22 26 29 30 31 32 33 33 33 32 31 30 28 28 27 26 25 25 24 23 22 20 19 20 19 18 16 14 12 11 10 9 8 8 8 8 7 5 5 5 4 3 4 4 4 5 5 6
3 2 4 4 3 9 11 7 5 4 5 8 8 8 8 5 4 5 4 3 5 1 3 1 3 3 5 6 8 5 3 4 3 2 2 9 17 21 25 29 30 31 33 33 33 34 33 32 31 30 29 28 27 26 25 24 23 22 21 20 18 18 18 17 16 14 12 11 9 9 8 7 7 6 5 4 3 3 3 3 3 3 4 4 4 5
5 3 7 8 4 12 15 8 3 6 8 8 5 4 6 6 4 5 4 3 3 1 2 1 3 4 3 1 1 2 2 2 2 1 3 8 16 24 28 31 32 33 33 33 33 33 33 32 31 30 29 28 27 26 25 24 23 22 21 19 17 17 17 16 15 14 12 11 10 9 8 7 6 5 3 3 3 2 2 2 2 1 2 3 4 5
5 4 3 3 3 11 13 4 4 7 6 4 1 1 5 4 2 1 1 0 1 1 2 4 3 3 2 1 2 1 1 3 2 2 5 9 15 24 29 31 33 34 34 34 34 33 33 32 31 30 29 28 28 27 26 25 23 22 21 19 17 16 16 16 15 14 12 11 10 9 8 7 6 5 4 3 3 3 3 2 1 1 1 3 4 6
3 2 2 2 1 5 5 3 4 3 4 3 3 5 3 1 2 1 1 2 1 5 3 5 5 3 1 2 3 3 3 4 4 4 6 9 14 22 29 33 36 36 36 36 35 34 33 32 31 30 29 29 28 27 26 25 23 22 21 20 18 17 17 16 15 14 13 11 10 10 9 8 7 6 5 5 5 4 4 3 2 2 2 3 4 6
3 1 2 2 2 2 1 4 4 1 2 5 5 6 3 1 1 2 4 1 2 7 3 5 8 6 5 3 3 4 5 6 7 6 7 9 13 20 28 37 39 39 38 37 35 35 34 34 32 31 30 29 27 27 26 24 23 22 21 20 18 17 16 16 15 14 13 12 11 11 10 9 8 8 7 6 6 5 4 3 3 3 4 4 6 7
3 3 1 1 1 2 3 4 4 1 1 1 2 4 3 2 4 4 4 3 4 6 4 4 7 6 7 6 5 7 9 10 10 7 7 11 15 20 28 38 41 40 39 37 36 36 36 36 34 32 31 30 28 27 26 25 24 23 22 20 19 17 16 16 15 15 14 13 12 12 11 10 9 9 8 6 6 5 5 5 4 5 5 6 7 8
3 4 2 1 1 3 3 5 7 7 3 1 1 4 1 2 3 4 3 2 4 5 4 3 3 5 7 8 10 13 12 11 11 9 9 14 19 25 33 39 42 42 41 40 39 39 39 38 35 34 32 31 29 28 26 26 25 24 23 22 21 19 18 17 16 15 15 15 14 13 13 12 10 9 8 7 6 6 6 6 6 6 6 6 7 8
3 4 3 2 1 3 5 7 9 10 9 6 7 8 5 2 1 2 3 1 2 4 4 4 5 4 4 4 9 12 9 8 10 10 10 14 23 32 37 41 43 44 44 43 42 42 41 39 36 34 33 31 30 29 28 27 26 25 25 24 22 20 18 18 17 16 16 16 15 14 13 12 10 9 8 8 7 7 7 7 6 6 6 6 7 8
4 3 4 3 4 6 4 1 2 4 6 7 9 11 11 8 4 4 6 3 2 4 3 3 5 3 3 1 2 4 1 2 6 7 8 14 24 31 34 38 43 46 47 45 45 44 42 40 38 36 35 33 31 30 29 28 28 27 26 25 23 21 19 18 18 18 17 17 16 15 13 12 11 10 9 9 8 8 8 8 7 6 6 7 8 10
4 2 3 3 4 4 1 3 2 4 2 2 4 6 8 9 8 8 7 4 3 3 1 1 4 2 1 1 1 0 1 2 3 7 8 13 21 26 29 36 41 45 47 47 46 45 42 41 39 37 36 34 32 31 30 30 30 29 27 25 23 21 20 19 18 18 18 17 16 15 14 13 12 11 10 10 10 9 8 8 7 7 7 9 10 12
4 2 5 3 1 1 1 0 0 2 1 4 6 5 5 7 6 4 2 2 4 5 4 3 5 3 1 1 1 1 3 4 6 9 9 10 16 22 27 33 38 42 45 46 46 45 43 41 39 38 36 35 34 33 33 33 32 29 27 26 24 22 21 20 20 19 19 18 17 16 15 15 13 12 12 11 10 10 9 8 7 8 9 11 12 14
8 4 5 4 2 2 2 3 4 3 4 6 5 5 6 7 4 1 1 1 5 6 9 7 7 3 3 1 1 1 3 4 6 8 9 9 13 19 24 31 36 39 42 45 46 45 43 41 39 39 38 37 38 37 36 35 32 30 28 27 25 23 22 22 21 20 20 19 19 18 17 16 14 14 13 12 11 10 9 8 8 9 11 12 14 16
9 3 8 9 7 8 8 7 6 5 4 3 3 6 10 12 11 5 2 5 6 6 10 10 7 2 3 0 1 2 2 4 5 7 11 13 14 17 22 29 34 37 40 43 45 44 43 41 41 41 41 41 41 40 38 35 33 31 29 27 25 24 23 23 22 21 21 21 20 19 18 17 16 15 14 13 12 11 10 9 9 10 12 13 15 17
4 2 11 13 12 10 5 3 3 8 9 8 9 11 12 14 15 9 4 7 6 4 8 12 8 4 4 5 5 4 3 5 5 6 10 14 16 18 21 26 31 36 39 42 43 44 43 43 44 44 44 43 42 40 38 36 34 32 30 28 26 25 24 24 23 23 23 22 21 20 19 19 17 16 15 14 13 11 10 9 10 11 12 14 16 18
1 5 13 15 16 9 1 1 4 8 12 14 14 14 13 12 14 13 12 9 6 4 9 8 9 10 10 10 9 7 6 6 5 6 11 16 19 20 20 23 27 32 36 39 42 44 46 47 47 46 46 45 43 40 37 36 34 32 30 28 27 26 26 25 25 25 24 24 23 22 21 20 18 17 16 14 13 11 10 10 11 12 13 15 16 18
2 7 9 10 15 9 2 1 4 5 6 8 13 16 14 15 17 16 16 11 8 10 11 6 11 15 10 11 9 8 9 10 9 12 16 19 22 22 21 23 26 31 35 38 42 45 47 48 49 48 48 46 42 39 38 37 35 33 31 29 28 28 27 27 26 26 26 25 25 24 23 21 19 18 16 14 13 11 10 11 11 12 14 15 17 19
3 4 3 5 10 9 3 3 3 4 3 3 8 12 13 15 15 15 17 15 13 16 12 5 8 14 6 9 8 10 14 14 12 14 18 20 23 23 22 23 27 31 34 37 39 42 45 47 48 47 46 43 41 39 39 38 36 34 33 31 30 29 28 28 28 28 27 27 26 25 24 22 20 19 17 15 13 12 12 12 13 13 14 16 18 20
4 3 3 4 5 7 6 4 2 4 4 4 8 10 9 9 8 9 13 13 11 14 11 4 8 11 5 10 8 12 15 14 12 15 19 22 23 24 24 25 27 29 31 32 34 36 39 42 43 43 43 42 41 40 39 39 37 36 35 33 32 31 29 29 29 29 29 28 27 26 25 24 22 19 18 16 15 14 13 14 14 14 16 17 18 20
5 3 3 5 7 7 6 8 6 2 0 7 14 13 11 9 8 10 12 11 11 12 12 10 10 10 5 8 7 9 13 13 13 16 20 22 24 25 25 26 26 27 27 26 26 27 28 31 33 35 37 38 38 39 39 39 38 37 36 35 34 33 31 31 30 29 29 28 27 27 27 25 23 21 19 17 16 16 15 16 16 16 17 18 19 21
7 5 4 6 8 4 1 6 7 4 1 9 14 12 15 13 11 11 11 12 13 11 10 11 11 9 3 5 6 5 7 11 15 19 23 25 24 24 25 25 25 24 23 22 21 21 20 21 22 24 25 27 30 31 32 34 35 36 36 36 35 34 32 30 29 28 28 28 28 29 28 27 24 23 21 19 18 18 18 18 18 18 19 19 20 22
7 7 5 5 5 2 0 4 6 5 7 8 5 5 14 18 17 15 13 15 15 12 8 5 5 5 3 6 8 8 11 16 20 23 25 24 23 24 24 24 22 21 21 20 20 19 19 19 20 20 21 22 23 23 24 26 28 31 33 34 34 33 31 29 28 28 28 28 29 30 29 28 26 24 22 21 20 20 21 20 20 20 20 20 21 22
8 7 4 3 2 1 2 5 6 7 7 2 3 3 3 9 15 17 16 15 13 11 8 6 6 6 6 9 11 12 17 19 18 19 19 18 20 23 23 23 22 21 22 22 21 21 22 22 22 21 20 19 19 20 20 21 23 26 28 30 32 32 30 27 27 27 28 29 30 30 30 28 27 25 23 22 22 23 23 22 21 21 21 21 22 23
8 7 3 2 3 3 3 7 6 3 1 3 1 2 3 3 4 8 10 10 9 11 11 12 11 7 6 9 9 8 12 13 11 14 17 16 17 19 20 22 22 21 21 20 20 21 21 21 20 19 18 17 17 18 19 19 20 22 25 28 30 30 28 26 27 28 28 29 30 30 30 28 27 25 24 24 24 24 24 23 22 22 22 22 23 24
5 6 4 4 4 3 3 6 2 5 4 4 4 4 5 4 5 6 6 7 8 11 13 12 11 6 7 9 10 9 8 7 5 12 18 20 19 19 19 20 19 18 17 16 17 18 18 18 17 17 17 17 17 18 18 18 20 21 23 25 27 27 27 27 28 29 29 29 29 29 29 27 26 25 25 24 25 24 24 23 23 23 23 23 24 25
1 2 3 4 4 3 3 4 2 4 7 4 4 5 5 3 5 6 4 3 3 10 16 15 12 9 9 9 11 12 8 3 3 9 17 21 21 20 20 18 17 16 16 16 17 18 19 19 18 18 18 18 18 18 17 17 19 21 23 24 25 26 27 28 28 29 29 29 28 28 27 26 25 25 24 24 25 24 24 24 24 24 24 24 25 25
1 1 1 3 3 4 4 4 4 5 4 2 3 2 3 6 9 8 2 3 3 11 20 18 11 10 13 14 16 13 6 3 4 7 11 13 15 18 19 17 17 17 17 18 19 19 19 19 19 19 19 19 19 18 17 17 18 19 21 22 23 25 26 26 26 26 26 26 25 25 25 24 24 24 24 24 24 24 25 25 25 25 25 25 26 27
2 1 2 4 4 5 5 4 4 4 2 2 2 2 4 8 10 7 2 3 3 10 18 17 11 11 17 22 19 11 5 7 6 7 9 8 9 13 15 15 17 17 17 18 19 19 19 19 20 19 19 19 18 17 17 17 18 18 19 20 22 23 25 25 24 23 22 23 23 23 23 23 23 23 23 24 24 25 26 26 26 26 26 26 27 28
2 1 2 4 5 6 8 5 3 3 2 2 4 7 9 7 5 5 3 2 7 12 15 16 14 12 18 25 21 13 13 14 9 6 7 9 11 13 14 15 16 16 16 17 17 18 20 20 19 18 17 17 17 18 18 18 19 19 20 22 24 25 26 26 24 23 23 23 23 23 23 23 23 23 23 24 25 26 27 27 27 27 27 28 28 28
3 2 2 4 5 5 5 5 4 4 3 7 7 8 9 5 2 4 3 7 13 14 14 16 15 13 17 22 22 20 19 16 11 7 8 11 11 12 13 14 15 16 17 17 18 19 19 18 18 17 17 17 18 20 20 19 19 19 21 24 25 25 26 25 24 24 25 24 24 23 23 22 22 22 23 25 26 27 28 28 28 29 29 29 29 29
5 4 3 4 4 2 2 4 5 5 4 15 14 5 4 4 3 8 10 9 11 12 15 18 15 14 17 20 21 23 18 13 12 12 10 11 11 11 12 14 14 15 17 17 18 17 17 17 18 18 18 19 21 21 21 20 19 19 21 23 23 23 25 26 26 26 26 25 24 23 22 21 21 22 24 25 26 28 28 29 30 30 30 30 30 30
4 5 4 4 5 4 3 6 4 2 9 24 17 3 6 8 8 12 12 9 10 13 16 18 16 15 18 19 19 21 18 13 13 12 11 12 12 12 13 14 15 16 16 16 15 14 15 17 18 18 19 21 23 23 23 22 21 21 22 22 21 23 26 26 26 27 26 26 25 24 23 22 21 22 24 26 27 29 29 30 31 31 31 31 30 30
3 3 2 2 3 3 2 3 0 2 15 25 10 3 9 14 11 11 10 11 15 16 15 18 18 17 19 19 17 18 17 15 13 13 13 14 14 14 15 16 18 18 16 14 14 14 15 17 18 19 20 22 24 26 26 25 24 24 24 22 21 24 26 26 27 28 27 28 27 26 25 24 23 23 24 26 28 29 30 31 32 32 32 31 30 30
1 1 1 1 2 1 2 2 2 1 13 22 9 5 11 17 14 11 10 11 16 16 15 17 18 17 19 20 19 17 17 16 16 16 16 16 17 17 17 18 19 19 17 16 16 16 18 19 21 22 23 24 27 29 29 28 28 27 26 23 22 25 26 27 28 29 29 30 30 29 28 26 24 24 25 26 28 29 31 32 33 33 32 31 30 29
0 2 2 0 2 2 1 3 3 1 8 20 15 5 9 15 16 14 11 10 13 15 15 16 16 16 18 19 19 19 18 17 18 18 19 20 20 20 19 19 20 19 19 18 18 19 21 22 24 25 26 28 29 30 31 31 31 30 28 26 25 26 28 30 31 31 31 32 32 31 30 28 26 26 26 26 27 28 30 32 32 33 32 30 29 29
3 6 4 1 1 2 1 1 1 1 5 15 18 14 11 13 15 15 13 12 13 13 14 16 16 16 17 18 19 20 19 18 18 19 20 21 22 22 23 22 22 21 20 20 21 23 24 25 26 27 29 30 31 31 33 34 34 34 32 31 30 29 30 32 33 34 35 35 34 33 32 30 29 28 27 27 27 28 30 31 31 32 31 30 29 30
5 6 4 1 2 2 1 0 1 1 1 8 16 19 17 14 14 14 15 14 14 14 14 15 16 17 18 19 19 19 20 20 19 19 20 22 23 24 25 24 23 22 21 19 20 23 25 28 29 29 30 31 31 32 34 36 36 36 36 35 34 34 34 34 35 36 37 37 37 36 35 33 32 31 30 30 29 29 30 30 31 31 31 30 30 30
5 4 2 2 2 2 1 6 8 4 0 7 16 20 19 16 15 14 14 14 15 15 16 16 17 19 20 20 19 20 21 21 19 19 20 22 24 24 24 22 22 21 19 18 19 21 25 27 29 30 31 32 31 32 33 35 36 37 39 39 38 38 38 38 38 39 40 40 40 39 38 36 35 33 33 32 31 31 31 30 31 31 31 30 30 30
8 6 5 4 2 1 4 13 16 9 2 5 12 14 15 15 14 14 15 15 16 16 16 16 18 20 21 20 20 20 20 19 18 18 20 21 23 25 25 24 24 22 20 19 20 22 25 27 29 31 32 32 31 32 34 35 36 37 38 39 40 41 42 41 42 42 42 43 43 42 41 39 36 35 34 34 32 32 32 31 31 31 31 31 31 30
Wind_Direction
182 194 212 226 215 193 199 209 216 69 79 106 171 251 264 268 275 201 122 43 36 270 263 257 269 272 267 240 192 178 196 198 202 206 204 199 198 202 206 211 207 204 208 200 188 170 154 148 139 136 139 134 133 132 126 122 124 123 123 124 120 115 112 113 118 122 130 137 141 152 166 165 157 158 160 145 135 125 117 113 102 80 63 57 45 36
177 219 231 224 140 167 204 205 184 143 168 204 241 253 256 253 266 229 121 71 107 248 261 260 270 266 267 262 181 159 197 205 204 206 200 193 190 197 202 207 212 208 205 194 181 168 157 149 142 139 142 144 144 141 135 130 129 125 123 124 119 112 109 109 117 124 132 145 155 162 162 155 144 134 123 111 98 91 88 85 83 80 73 67 60 57
197 233 235 167 100 108 172 188 195 214 221 223 228 249 256 251 274 264 128 110 165 230 257 280 273 266 267 264 193 165 202 205 205 208 198 189 185 194 199 202 210 209 201 188 175 167 160 154 151 147 147 151 152 147 144 139 133 130 128 126 122 119 117 113 116 120 121 126 132 131 125 121 119 113 105 98 91 87 85 83 81 78 74 69 65 63
204 240 234 137 136 145 137 180 195 211 227 223 214 232 244 227 251 253 145 103 180 233 292 311 283 273 269 260 216 154 178 193 206 211 206 197 191 196 200 201 204 203 198 183 171 166 162 160 156 153 154 157 156 153 149 144 139 137 135 132 130 128 123 115 113 112 109 109 110 110 109 108 106 102 97 92 89 87 84 81 77 72 67 62 60 58
213 155 122 145 166 181 166 172 187 204 225 217 211 225 239 230 227 242 324 70 216 207 241 284 283 271 257 251 233 131 152 190 194 200 203 202 201 202 201 201 201 198 193 177 168 165 161 159 156 156 159 157 155 154 150 146 143 140 136 131 127 123 118 113 109 107 104 102 103 104 104 102 98 96 95 93 90 87 82 77 73 67 61 55 52 49
233 118 126 148 174 190 185 189 194 205 225 219 212 220 235 245 238 231 147 318 263 238 191 238 273 267 220 236 233 146 175 195 180 193 198 195 201 202 199 200 197 190 184 172 165 162 158 156 156 157 158 154 152 149 145 141 137 133 129 125 121 117 113 109 106 104 102 101 101 100 100 99 98 98 97 93 89 84 79 74 69 64 60 53 46 43
232 135 132 156 174 182 197 218 197 190 222 243 210 209 225 242 242 218 193 213 260 270 97 219 265 268 241 229 197 152 207 204 186 204 202 193 200 201 201 201 192 181 175 168 162 158 156 156 156 155 153 150 147 143 138 134 131 127 124 121 118 115 111 108 106 104 103 103 101 99 100 101 101 100 96 92 88 85 81 77 73 68 62 54 46 42
161 154 151 164 165 174 204 221 180 176 213 239 88 188 208 218 221 214 205 216 253 327 96 201 243 277 266 247 139 144 234 225 206 209 205 199 202 203 205 202 190 178 169 163 159 156 156 155 153 150 148 146 143 139 135 132 129 126 124 121 119 116 113 110 107 105 103 101 101 102 102 103 100 97 96 94 90 88 87 85 82 76 67 59 48 43
143 175 186 176 171 195 207 195 160 179 212 289 73 120 166 192 211 202 207 225 253 316 242 195 174 266 263 221 119 150 245 245 219 199 194 197 199 200 203 199 186 175 167 161 158 155 154 153 151 148 146 144 140 137 134 132 130 128 127 125 123 120 117 114 112 108 105 103 105 105 101 99 100 98 97 97 94 92 90 88 86 79 67 59 48 43
53 190 198 183 192 208 176 46 150 190 206 130 120 96 93 81 83 139 212 217 188 254 244 193 170 236 273 215 178 182 242 245 214 181 187 191 193 196 198 194 184 174 167 161 158 156 154 152 150 148 146 143 140 138 136 134 134 133 131 130 129 126 123 119 116 115 116 119 118 112 102 97 100 102 100 100 99 96 94 88 82 77 66 57 48 43
57 61 209 200 215 162 110 60 28 77 130 137 138 107 101 89 86 113 187 167 232 250 234 193 181 211 264 226 196 204 227 203 152 161 180 181 186 193 194 190 182 174 167 163 160 157 154 152 151 149 146 143 141 139 139 138 137 137 136 135 134 131 127 124 125 128 132 133 127 116 107 100 99 103 102 100 101 99 97 89 76 70 62 54 48 41
127 189 199 195 178 115 107 86 45 44 127 152 158 141 137 139 141 180 161 166 244 249 200 172 185 207 235 223 197 201 99 131 153 168 178 178 182 189 190 187 181 174 168 164 161 158 155 154 152 151 148 145 144 142 142 141 141 141 140 142 141 136 133 134 135 138 137 136 132 121 111 103 101 105 102 96 102 104 97 83 74 69 60 53 46 38
205 207 168 146 170 160 145 113 84 77 194 198 170 163 189 211 186 219 202 192 242 238 88 53 159 211 240 242 258 278 106 140 122 94 184 182 179 182 185 185 180 175 171 167 164 161 158 157 155 153 151 149 149 147 147 146 146 147 146 149 149 143 141 143 142 142 139 138 136 126 114 107 106 111 107 101 105 109 101 86 80 75 66 55 42 33
216 214 157 168 189 189 186 175 174 178 184 193 181 177 197 197 200 227 208 227 260 227 76 91 170 226 253 246 261 281 81 94 79 59 205 179 176 180 183 183 180 176 174 170 167 164 161 160 158 156 156 156 155 153 153 153 153 154 153 155 156 150 148 148 146 146 145 143 139 133 125 116 118 123 120 117 118 114 106 99 90 77 64 44 26 16
223 262 175 179 166 177 193 207 182 138 163 194 190 192 208 194 207 227 210 237 267 108 97 132 183 213 208 155 285 325 53 84 94 136 176 168 177 182 182 182 181 179 178 174 170 166 164 163 162 162 162 162 161 160 160 160 160 161 160 161 164 159 155 154 152 151 151 149 144 143 140 134 137 144 140 142 146 140 134 122 106 66 40 16 4 360
230 272 162 152 124 165 187 198 97 118 162 195 108 211 232 212 182 230 265 358 30 343 191 183 229 241 212 124 120 120 176 164 140 133 156 163 176 181 183 184 184 183 182 178 173 169 167 167 167 168 169 167 167 166 166 166 167 168 167 168 172 169 161 160 158 156 156 156 154 154 156 155 160 168 177 186 184 179 183 184 209 279 335 343 347 347
213 278 96 71 96 173 191 147 121 158 170 148 172 199 219 322 90 136 243 78 67 271 230 177 226 248 227 229 154 148 184 174 170 166 161 165 173 180 185 188 187 186 184 180 176 172 171 172 172 173 173 173 173 173 172 172 172 174 175 176 177 175 169 166 164 162 162 165 168 168 170 175 181 191 199 203 204 204 205 213 234 263 303 319 325 325
204 256 145 151 177 179 129 115 103 21 125 135 190 187 137 14 350 223 247 203 195 254 249 185 218 211 190 210 149 158 191 194 197 181 160 170 178 186 191 190 189 188 186 183 178 175 175 177 177 178 178 178 178 179 178 178 178 179 182 184 184 182 177 171 169 170 172 176 179 181 184 190 196 202 205 206 208 211 216 230 252 270 285 295 300 304
200 237 183 143 196 126 131 155 132 136 204 153 193 162 135 226 206 180 226 236 210 240 253 197 216 218 204 196 166 182 197 197 193 176 169 185 189 193 195 193 191 190 189 186 181 180 181 182 182 182 183 183 184 185 184 183 184 185 187 189 189 188 184 178 176 178 182 185 189 193 195 199 202 203 205 208 214 221 229 242 255 265 275 283 291 298
180 236 224 94 4 116 145 201 190 179 185 12 161 172 185 265 219 179 199 230 218 234 250 209 203 211 208 193 179 188 197 189 179 178 192 196 194 196 197 195 193 192 191 188 185 185 186 186 185 185 187 188 189 189 189 189 190 191 192 193 193 192 188 186 185 187 191 194 196 200 202 202 203 203 208 216 222 229 234 243 252 260 271 282 291 300
143 225 226 112 86 175 183 206 204 185 172 170 182 183 188 195 240 260 230 208 232 240 239 245 252 212 180 184 184 188 195 183 176 184 193 194 198 201 200 197 194 193 192 190 189 190 190 189 188 189 191 192 193 194 194 195 196 197 197 197 196 195 193 193 193 194 198 201 202 204 204 204 205 207 215 221 222 228 235 242 252 259 270 285 297 306
171 201 202 156 176 204 211 244 261 216 183 184 190 187 188 182 164 213 222 186 203 246 233 252 271 230 149 147 190 183 196 179 182 191 188 193 201 204 202 199 197 195 195 193 193 193 192 191 191 192 195 196 197 198 199 200 202 202 201 201 199 199 198 199 201 201 203 206 205 205 206 207 210 212 216 219 221 228 236 242 251 262 278 294 305 313
138 142 197 189 197 212 292 11 338 306 301 261 238 205 193 190 181 202 220 176 164 228 269 302 275 274 111 103 95 78 320 303 226 211 201 199 204 207 205 201 199 199 198 197 197 197 195 194 195 196 198 199 200 202 204 206 207 206 204 204 204 203 203 203 205 206 207 208 208 208 209 211 213 215 216 218 222 229 235 242 254 270 288 303 313 319
112 164 200 207 212 91 25 33 330 341 312 246 248 221 204 213 205 214 236 152 185 198 167 209 248 243 114 124 108 327 293 279 248 225 213 204 205 209 208 203 202 202 202 202 201 201 199 198 199 199 200 202 203 206 208 209 209 208 207 208 207 207 207 207 208 209 210 211 211 213 213 214 215 216 216 219 224 229 235 246 264 282 299 313 320 324
161 178 183 190 206 189 201 215 212 205 203 227 232 191 202 217 203 172 74 169 238 199 172 215 246 197 134 123 77 350 290 275 259 238 224 212 207 209 208 205 205 204 205 206 205 205 204 203 203 203 203 206 208 210 211 211 211 211 211 211 210 210 210 210 211 213 214 215 216 216 216 216 216 216 219 222 225 231 241 258 277 295 309 319 323 325
168 174 178 191 206 204 207 216 211 179 168 222 210 178 201 205 193 188 173 213 229 173 171 217 242 140 109 233 257 256 270 272 261 241 228 217 212 213 211 209 208 206 207 208 208 208 207 206 206 207 208 210 212 212 212 212 213 214 215 214 213 214 214 215 216 217 219 219 219 219 218 218 218 219 222 225 229 239 253 271 289 302 313 320 322 324
155 210 196 209 218 211 208 210 155 129 155 199 198 185 197 202 197 197 213 220 204 151 204 221 221 218 203 205 229 213 200 241 245 230 224 216 212 215 216 215 211 210 211 211 211 211 210 210 210 211 212 214 215 216 215 215 216 217 217 216 215 216 218 220 220 220 221 221 220 220 220 220 222 224 227 230 237 249 263 279 294 304 312 318 321 322
134 219 209 222 231 232 35 91 165 154 180 201 199 196 199 196 195 200 217 217 156 171 239 199 176 222 211 182 203 204 193 225 223 208 216 213 210 211 213 213 210 210 212 212 212 213 212 213 214 214 216 217 218 218 218 220 221 221 221 221 219 219 220 222 223 223 224 223 222 221 222 223 226 228 232 237 245 257 270 283 294 303 310 315 317 318
185 224 209 214 232 244 46 132 202 176 190 205 201 201 197 190 192 199 216 217 171 212 247 144 165 223 208 168 196 198 185 199 203 218 223 214 209 209 206 206 205 207 210 211 213 215 215 217 217 218 219 220 221 221 222 223 223 223 224 223 222 223 224 224 225 225 225 225 224 224 224 226 229 233 238 244 252 262 273 284 293 300 305 310 313 314
193 227 180 178 231 246 210 186 196 174 188 216 205 204 197 193 192 195 212 215 206 228 244 138 189 239 196 150 195 198 193 206 218 226 221 208 205 204 202 203 205 207 210 212 215 217 218 220 220 221 223 224 225 226 226 227 227 227 226 224 223 224 225 226 227 227 227 227 227 227 228 230 232 238 244 248 255 264 274 283 289 294 299 305 308 309
202 211 129 137 228 239 207 195 207 195 199 224 226 218 197 182 181 198 216 214 212 236 243 201 236 254 175 150 199 210 203 212 218 211 205 203 203 199 198 201 204 207 211 214 217 220 222 224 226 227 228 230 231 232 233 234 233 232 231 228 226 226 227 227 228 228 228 229 229 230 232 233 236 242 247 251 257 265 274 282 284 288 294 298 301 304
197 211 119 155 218 227 193 187 198 175 108 257 248 225 183 163 178 202 216 211 203 222 234 230 245 253 195 153 188 208 198 199 204 200 199 202 199 196 197 200 202 207 211 214 217 220 223 225 227 230 232 234 236 238 240 241 239 237 235 232 229 228 228 228 227 228 229 230 231 233 235 237 240 246 250 254 260 267 275 280 279 282 288 291 295 301
184 191 162 181 208 223 170 182 178 126 142 252 248 211 181 184 196 203 215 217 208 208 218 225 235 246 229 152 167 187 191 201 208 203 201 200 197 197 201 202 206 210 212 215 214 212 216 223 228 234 236 238 239 241 243 245 243 241 238 234 231 228 227 227 227 229 231 232 233 235 237 239 243 248 253 258 265 271 275 275 274 276 281 286 292 300
176 185 189 189 199 219 81 137 144 170 216 240 264 201 188 194 197 203 216 216 208 206 217 240 245 233 193 171 182 193 201 210 214 210 206 204 202 204 206 206 208 212 214 215 214 218 229 237 241 243 242 241 241 240 241 241 240 241 239 235 231 229 228 229 229 231 233 234 235 236 237 241 245 250 255 261 267 272 273 271 269 272 277 283 291 300
170 183 188 173 160 136 103 130 165 212 226 231 349 328 209 196 199 210 227 227 211 201 208 230 237 215 192 196 202 205 206 208 212 212 209 207 210 212 212 210 211 214 218 221 225 233 240 241 240 239 235 233 230 227 227 228 229 231 231 230 230 228 228 230 231 233 235 236 236 237 238 242 246 251 257 263 267 270 268 266 266 269 274 281 291 300
171 178 164 141 149 121 142 180 195 243 244 126 68 350 42 76 167 207 242 248 213 191 198 216 225 212 181 189 193 197 205 207 216 220 213 212 220 221 219 221 224 227 229 231 233 235 235 233 232 230 226 223 220 220 222 222 220 218 218 222 226 226 228 231 232 234 236 237 237 238 239 243 248 253 259 263 265 265 264 262 263 267 273 281 290 300
172 175 164 180 184 140 173 204 243 327 284 177 149 187 182 154 151 176 227 245 206 190 194 208 218 194 148 162 167 161 173 187 233 241 227 223 227 227 227 230 232 233 231 229 227 224 222 222 221 219 219 220 221 224 225 223 218 212 211 215 220 223 226 229 232 234 236 238 238 238 240 244 249 255 259 261 261 261 260 260 262 266 273 281 290 299
185 184 175 196 195 139 168 212 247 281 255 209 157 192 203 177 141 150 202 256 201 187 190 197 210 189 147 143 151 144 145 171 253 249 234 230 230 229 229 228 225 223 219 214 213 211 210 212 213 215 220 222 223 224 221 219 216 210 208 211 215 221 225 228 232 234 236 237 237 238 242 246 251 255 257 257 258 259 259 260 262 266 273 281 290 298
74 26 172 204 195 161 183 216 210 226 246 190 160 201 194 167 138 118 173 251 183 184 191 195 201 179 159 160 158 146 149 210 233 238 234 232 229 225 224 220 214 213 212 210 210 209 209 213 216 220 223 223 222 221 217 214 212 210 211 213 217 223 227 231 235 237 238 239 239 241 244 246 249 252 254 257 258 258 259 260 262 266 273 281 289 296
134 147 205 217 208 191 202 217 221 245 264 134 164 197 179 169 150 134 226 257 176 185 191 192 195 179 167 168 163 155 187 211 223 245 234 213 203 201 201 203 204 206 208 209 210 210 212 217 222 224 225 224 222 220 217 216 214 215 219 223 226 230 233 236 240 241 241 241 240 240 243 245 249 253 256 258 259 259 260 261 262 267 273 281 288 293
157 161 194 216 225 216 214 224 251 262 233 150 178 177 156 144 157 191 224 178 166 184 186 186 194 187 170 169 170 186 215 215 220 240 210 183 180 181 184 192 196 199 204 207 211 215 217 220 223 225 226 225 223 220 217 217 217 220 225 228 232 235 236 239 242 241 239 238 238 241 245 248 252 255 257 259 259 259 260 261 263 268 274 280 286 291
160 150 178 213 224 218 224 240 259 259 189 134 144 168 160 148 200 202 152 134 158 174 179 185 194 191 182 185 192 206 218 218 213 203 177 176 184 185 188 193 194 196 202 205 209 214 217 219 221 222 223 223 222 219 216 217 220 224 228 230 233 236 237 238 240 239 238 239 241 243 246 249 253 256 258 260 261 261 262 263 265 269 274 279 284 288
162 158 181 206 193 174 232 221 226 270 161 136 131 140 197 210 160 137 132 138 155 167 176 184 193 197 196 201 210 215 219 215 204 198 189 188 192 195 200 203 202 203 206 208 209 212 216 221 224 227 227 224 220 219 219 221 226 230 234 237 239 239 237 237 238 239 239 240 240 242 244 248 253 257 260 262 263 263 263 264 266 269 273 277 281 285
175 170 191 208 179 166 208 205 205 320 162 157 148 140 197 182 135 130 142 156 169 176 181 185 192 201 201 204 212 216 217 212 202 202 204 204 206 207 208 207 207 207 208 210 214 219 224 230 232 232 231 228 225 225 225 227 231 236 241 244 243 239 237 237 237 238 238 238 239 241 244 247 252 257 261 263 264 264 265 265 267 269 272 275 279 283
203 172 175 209 181 163 178 194 122 74 168 171 160 51 164 164 140 138 160 175 177 181 189 193 197 201 200 202 208 213 216 214 210 213 219 221 222 220 214 212 212 212 213 216 223 229 234 239 241 237 234 232 231 230 230 231 234 239 245 248 245 240 239 238 237 237 238 238 240 242 244 247 251 256 261 263 265 265 265 266 267 268 271 274 277 281
4 76 82 71 180 162 57 119 122 113 176 179 171 82 149 163 156 155 175 186 184 186 190 193 198 202 200 201 207 211 214 215 217 222 226 227 227 224 219 218 216 216 219 225 231 237 240 242 243 240 237 236 235 234 235 235 237 242 248 251 248 244 242 239 238 239 239 240 242 242 243 245 249 254 258 261 263 265 265 265 266 267 270 273 276 280
268 174 168 138 196 196 133 134 131 71 189 191 193 174 159 171 175 176 182 186 188 193 195 193 198 204 204 208 214 216 218 220 221 225 227 228 229 226 224 223 221 220 226 232 238 242 243 242 242 241 241 240 239 238 238 238 240 244 247 248 247 246 245 242 241 241 241 242 242 241 242 244 247 251 254 257 261 263 264 265 266 267 269 272 276 280
179 168 176 216 198 165 110 131 129 349 208 204 209 208 195 192 194 193 194 194 194 199 203 202 204 208 212 218 222 224 228 229 228 230 230 229 229 228 227 227 227 229 236 243 245 246 245 244 244 244 244 244 244 243 243 243 244 245 245 246 248 248 247 246 245 244 245 245 244 243 242 244 246 249 251 254 257 260 263 265 266 268 270 273 276 279
137 160 178 170 132 116 51 182 181 12 275 221 215 210 209 216 215 206 206 210 209 210 210 211 213 218 222 226 229 231 235 236 237 240 238 234 233 231 228 228 231 236 243 248 250 249 249 248 248 248 248 249 248 247 247 247 248 248 247 248 249 250 250 251 250 249 249 248 246 244 243 243 245 248 249 252 255 258 261 264 266 268 271 274 276 279
151 179 168 116 160 199 176 175 177 163 33 213 206 205 210 218 223 220 219 221 222 223 224 223 223 225 228 230 232 235 238 241 245 246 245 243 240 235 231 231 235 240 244 246 248 250 251 251 252 251 251 252 251 250 249 249 250 250 251 251 252 254 254 254 254 254 253 252 249 245 242 242 245 247 249 252 254 257 260 263 266 269 273 275 276 279
192 202 176 154 195 218 162 177 185 186 188 199 197 201 208 215 221 223 224 226 230 233 237 240 240 240 240 240 241 242 246 250 255 255 253 252 248 242 239 240 242 245 249 251 253 255 255 254 253 252 253 254 253 253 253 252 251 251 252 253 255 256 257 258 257 257 256 256 254 249 245 243 244 248 250 252 254 257 260 262 266 270 273 275 276 278